www.pogodaiklimat.ru

Погода и климат >> Архив погоды >> Россия >> Мурманская область >> Териберка


АРХИВ ПОГОДЫ в Териберке

Время (UTC), дата Ветер
(напр.,м/с)
 
Видим.   Явления Облачность Т
(С)
Тd
(С)
f
(%)
Тe
(С)
Тes
(С)
Комфортность P
(гПа)
Po
(гПа)
Тmin
(С)
Tmax
(С)
R
(мм)
R24
(мм)
S
(см)
00 18.03 С 7-8
{10}
20 км слаб. ливневой снег 10/10 300 м
[Cb cap]
-0.7 -2.6 87 -8 -8 1007.7 1003.9
06 18.03 СВ 7 20 км слаб. ливневой снег {метель} 10/8 600 м
[Cb cap Ac und]
-1.0 -3.9 81 -8 -8 1009.3 1005.5 -2.5 0.2 13
12 18.03 В 12-14
{14}
20 км позёмок {ливн. осадки} 10/9 300 м
[Cb cap Ac und]
-0.8 -2.4 89 -10 -10 1008.7 1004.9
18 18.03 ЮВ 9-11
{13}
4000 м слаб. ливневой снег {метель} 10/10 300 м
[Cb cap]
-0.5 -0.8 98 -9 -9 1005.1 1001.3 -0.3 0.9
00 19.03 ЮВ 4-5
{11}
20 км слаб. ливневой снег {метель} 10/10 300 м
[Cb cap]
-0.3 -0.6 98 -6 -6 1001.3 997.5
06 19.03 З 2 20 км слаб. ливневой снег 10/10 200 м
[Cb cap]
-0.2 -0.2 100 -4 -4 1001.6 997.8 -0.8 0.9 23
12 19.03 С 9-11
{12}
20 км в посл. час ливневой снег 9/9 300 м
[Cb cap]
+0.6 +0.3 98 -7 -7 1004.4 1000.6
18 19.03 СЗ 10-13
{16}
20 км в посл. час ливневой снег 9/9 300 м
[Cb cap]
-0.3 -0.6 98 -9 -9 1007.7 1003.9 +1.1 1
00 20.03 С 4-5
{14}
20 км {ливн. осадки} 9/8 600 м
[Cb cap Ac trans]
+0.6 -3.4 75 -5 -5 1008.3 1004.5
06 20.03 З 6-8
{11}
20 км {ливн. осадки, метель} 9/8 600 м
[Cb cap Ac trans]
-2.7 -7.2 71 -10 -10 1007.5 1003.7 -3.0 1 25
12 20.03 ЮЗ 7-8
{12}
20 км {метель} 3/1 600 м
[Sc Ac trans]
-3.9 -7.6 75 -12 -11 1006.6 1002.7
18 20.03 ЮВ 2 20 км 3/1 600 м
[Sc Ac cast]
-6.0 -8.3 84 -10 -10 1005.8 1001.9 -2.2
00 21.03 ЮЗ 8-10
{12}
20 км 4/1 600 м
[Sc Ac cast Ci sp]
-5.8 -8.4 82 -15 -15 1004.2 1000.3
06 21.03 Ю 8-10
{12}
20 км позёмок 8/3 600 м
[Cb cap Ac trans Ci sp]
-5.4 -7.6 84 -14 -14 1003.0 999.1 -8.1 21
12 21.03 ЮЗ 5 20 км {ливн. осадки, метель} 6/3 300 м
[Cb cap Ac trans Ci sp]
-0.6 -3.1 83 -7 -6 1001.1 997.3
18 21.03 Ю 2 20 км 3/3 600 м
[Sc Ac lent]
-0.3 -6.1 65 -4 -4 999.8 995.9 0.0
00 22.03 З 4 20 км 9/6 600 м
[Cb cap Ac As]
-2.7 -4.3 89 -9 -9 1001.1 997.3
06 22.03 З 7-9
{12}
20 км {ливн. осадки, метель} 9/8 600 м
[Cb cap Ac trans]
-1.4 -0.8 100 -9 -9 1006.4 1002.6 -4.3 0.0 21
12 22.03 З 10-12
{16}
20 км {метель} 1/1 600 м
[Sc]
+0.5 -6.0 62 -7 -7 1012.2 1008.3
18 22.03 ЮЗ 13-16
{16}
20 км позёмок 3/1 600 м
[Sc Cs]
-0.1 -7.8 56 -9 -9 1012.0 1008.1 +2.5
00 23.03 ЮЗ 14-18
{18}
20 км позёмок 10/3 600 м
[Sc Ac As Cs]
-1.4 -7.3 64 -11 -11 1006.5 1002.7
06 23.03 Ю 14-18
{23}
20 км позёмок 9/4 600 м
[Cb cap Ac As Ci sp]
-1.8 -4.6 81 -12 -12 996.5 992.7 -2.1 19
12 23.03 ЮЗ 13-17
{21}
10 км слаб. ливневой снег {метель} 10/10 600 м
[Cb cap]
-0.6 -1.8 92 -10 -10 988.8 985.0
18 23.03 ЮЗ 14-17
{19}
20 км {ливн. осадки, метель} 9/8 600 м
[Cb cap Ac trans]
+1.4 +0.6 94 -8 -8 982.0 978.3 +1.5 0.5
00 24.03 ЮЗ 12-15
{16}
20 км 6/3 600 м
[Cb cap Ac trans Cs]
+1.3 -1.9 79 -7 -7 981.0 977.3
06 24.03 ЮЗ 8-10
{16}
20 км 4/1 600 м
[Sc Ac lent Ci fib]
-1.6 -4.6 80 -9 -9 981.4 977.7 -1.7 20
12 24.03 ЮЗ 7-8
{12}
20 км 4/1 600 м
[Sc Ac cast Ci sp]
+0.2 -3.5 76 -7 -6 984.3 980.6
18 24.03 З 6 20 км 9/4 600 м
[Cb cap Ac trans]
-0.6 -3.7 80 -7 -7 987.8 984.1 +0.5

 

Местоположение метеостанции Териберка (Мурманская область, Россия): широта 69.20 долгота 35.12 высота над уровнем моря 30 м.

В архиве по умолчанию представлена погода в Териберке за последнюю неделю. Архивные данные за месяц целиком и за предыдущие месяцы, начиная с января 2011 года, Вы можете получить, выбрав интересующий диапазон дат из раскрывающегося списка и нажав кнопку "Ввод!".


*Определитесь, кто Вы:
робот инопланетянин человек

Внимание! Время в таблицах - всемирное. Для получения местного времени необходимо прибавить поправку, которая равна 3 ч.

Смотрите также архив погоды в соседних городах и на ближайших метеорологических станциях:

Погода в Дальних Зеленцах (Мурманская область, Россия) (39 км)
Погода в Туманной (Мурманская область, Россия) (41 км)
Погода в Полярном (Мурманская область, Россия) (65 км)
Погода в Североморске (Мурманская область, Россия) (67 км)
Погода в Мурманске (Мурманская область, Россия) (86 км)
Погода в Ура-Губе (Мурманская область, Россия) (92 км)
Погода в Цып-Наволоке (Мурманская область, Россия) (98 км)
Погода в Мурманске аэропорт (Мурманская область, Россия) (114 км)
Погода в Пулозере (Мурманская область, Россия) (120 км)
Погода в Ловозере (Мурманская область, Россия) (134 км)

Пояснения к столбцам:

Ветер - указаны скорость ветра в м/с - средняя за 10 мин, порывы в срок и между сроками (в фигурных скобках) и направление, откуда дует ветер: С - северный, СВ - северо-восточный, В - восточный, ЮВ - юго-восточный, Ю - южный, ЮЗ - юго-западный, З - западный, СЗ - северо-западный.
Видимость - горизонтальная дальность видимости в метрах или километрах. При видимости от 1 до 10 км при отсутствии осадков обычно наблюдается дымка, при ухудшении видимости до 1 км и менее - туман. В сухую погоду видимость может ухудшаться дымом, пылью или мглою.
Явления - указаны атмосферные явления, наблюдавшиеся в срок или в последний час перед сроком; фигурными скобками обозначены явления, наблюдавшиеся между сроками (за 1-3 часа до срока); квадратными скобками обозначены град или гололедные отложения с указанием их диаметра в мм.
Облачность - указаны через наклонную черту общая и нижняя облачность в баллах и высота нижней границы облаков в метрах; квадратными скобками обозначены формы облаков: Ci - перистые, Cs - перисто-слоистые, Cc - перисто-кучевые, Ac - высококучевые, As - высокослоистые, Sc - слоисто-кучевые, Ns - слоисто-дождевые, Cu - кучевые, Cb - кучево-дождевые. Подробнее классификацию облаков см. в Атласе облаков (PDF).
T - Температура воздуха - температура, измеренная на высоте 2 м над землей.
Td - Температура точки росы - температура, при понижении до которой содержащийся в воздухе водяной пар достигнет насыщения.
f - Относительная влажность воздуха - влажноcть воздуха, измеренная на высоте 2 м над землей.
Te - Эффективная температура - температура, которую ощущает одетый по сезону человек в тени. Характеристика душности погоды. При расчете учитывается влияние влажности воздуха и скорости ветра на теплоощущения человека.
Tes - Эффективная температура на солнце - температура, которую ощущает человек, с поправкой на солнечный нагрев. Характеристика знойности погоды. Зависит от высоты солнца над горизонтом, облачности и скорости ветра. Ночью, в пасмурную погоду, а также при ветре 12 м/с и более поправка равна нулю.
P - Атмосферное давление - приведенное к уровню моря атмосферное давление.
Po - Атмосферное давление - измеренное на уровне метеостанции атмосферное давление.
Tmin - Минимальная температура - минимум температуры воздуха на высоте 2 м над землей.
Tmax - Максимальная температура - максимум температуры воздуха на высоте 2 м над землей.
R - Количество осадков - Количество выпавших осадков за период времени, мм. При наведении курсора мыши на число - период времени, за который выпало указанное количество осадков.
R24 - Количество осадков - Количество выпавших осадков за 24 часа, мм.
S - Снежный покров - Высота снежного покрова, см. При наведении курсора мыши на число - состояние снежного покрова и степень покрытия местности в баллах.